Tracking 28096 objects as of 29-Sep-2023
HD Live streaming from Space Station
objects crossing your sky now

DELTA 1 DEB

Track DELTA 1 DEB now!
10-day predictions


NORAD ID: 10766
Int'l Code: 1976-077BP
Perigee: 1,508.8 km
Apogee: 1,593.2 km
Inclination: 102.3 °
Period: 117.0 minutes
Semi major axis: 7922 km
RCS: 0.3637 m2 (medium)
Launch date: July 29, 1976
Source: United States (US)
Launch site: AIR FORCE WESTERN TEST RANGE (AFWTR)

Note: This is SATELLITE DEBRIS
Your satellite tracking list
Your tracking list is empty




NASA's NSSDC Master Catalog

Two Line Element Set (TLE):
1 10766U 76077BP  23271.49150177 -.00000025  00000-0  17090-3 0  9994
2 10766 102.2578 238.5442 0053276 240.0054 238.3103 12.31253192120173
Source of the keplerian elements: AFSPC